Regional Weather Roundup
Issued by NWS

Home | Current Version | Previous Version | Graphics & Text | Print | Product List | Glossary On
Versions: 1 2 3 4 5 6 7 8 9 10 11 12 13 14 15 16 17 18 19 20 21 22 23 24 25 26 27 28 29 30 31 32 33 34 35 36 37 38 39 40 41 42 43 44 45 46 47 48 49 50
000
ASUS43 KMKX 060211
RWRWI

WISCONSIN REGIONAL WEATHER ROUNDUP
NATIONAL WEATHER SERVICE MILWAUKEE/SULLIVAN WI
900 PM CDT TUE MAY 05 2015

NOTE: "FAIR" INDICATES FEW OR NO CLOUDS BELOW 12,000 FEET WITH NO
SIGNIFICANT WEATHER AND/OR OBSTRUCTIONS TO VISIBILITY.

WIZ001-002-006>008-014>016-023>028-060300-
NORTHWEST WISCONSIN

CITY           SKY/WX    TMP DP  RH WIND       PRES   REMARKS
SUPERIOR ARPT  CLEAR     44  34  68 E7        30.17R
ASHLAND        CLEAR     43  33  68 CALM      30.19R
HAYWARD        PTCLDY    63  28  26 S9        30.18R
SIREN          PTCLDY    64  29  27 SE8       30.15S
CUMBERLAND     MOCLDY    59  28  31 SE7       30.17R
RICE LAKE      PTCLDY    60  29  30 E9        30.18S
CHETEK         PTCLDY    60  33  36 E8        30.18S
LADYSMITH      FAIR      60  30  32 SE6       30.21R
EAU CLAIRE     CLOUDY    61  43  51 SE14      30.18R
MENOMONIE      CLOUDY    61  46  57 SE16      30.18R
NEW RICHMOND   MOCLDY    61  44  53 SE9       30.15S
OSCEOLA        CLOUDY    62  45  53 SE9       30.16F
$$

WIZ003>005-009-010-017-018-060300-
NORTH CENTRAL WISCONSIN

CITY           SKY/WX    TMP DP  RH WIND       PRES   REMARKS
MANITOWISH WTR CLEAR     57  28  33 S6        30.22R
ARBOR VITAE    PTCLDY    59  25  27 S5        30.22S
WOODRUFF       PTCLDY    59  25  27 S5        30.22S
RHINELANDER    PTCLDY    58  25  28 S5        30.24R
EAGLE RIVER    PTCLDY    57  24  27 S6        30.23R
LAND O LAKES   CLEAR     59  29  31 SE5       30.24R
PHILLIPS       PTCLDY    59  30  32 SE3       30.21R
TOMAHAWK       PTCLDY    54  27  35 CALM      30.23S
MEDFORD        MOCLDY    56  27  32 SE5       30.21S
MERRILL        MOCLDY    56  26  31 SE5       30.24R
$$

WIZ029-030-035-036-043>047-060300-
CENTRAL WISCONSIN

CITY           SKY/WX    TMP DP  RH WIND       PRES   REMARKS
WAUSAU         MOCLDY    59  17  19 SE10      30.21S
MOSINEE        PTCLDY    57  23  26 E5        30.24R
MARSHFIELD     CLOUDY    59  37  44 SE9       30.21S
STEVENS POINT  CLOUDY    57  33  40 E5        30.23S
WAUPACA        CLOUDY    59  46  60 CALM      30.24R
WAUTOMA        LGT RAIN  56  49  77 E5        30.24R
WISC RAPIDS    CLOUDY    59  36  42 SE8       30.23R
CAMP DOUGLAS   CLOUDY    55  54  94 E8        30.20R
$$

WIZ011>013-019>022-031-037>040-048>050-060300-
NORTHEAST WISCONSIN

CITY           SKY/WX    TMP DP  RH WIND       PRES   REMARKS
ANTIGO         MOCLDY    52  32  46 SE7       30.25R
SHAWANO        CLOUDY    58  22  25 E5        30.25S
OCONTO         CLOUDY    52  35  51 CALM      30.25R
STURGEON BAY   CLOUDY    54  37  54 NE3       30.28R
GREEN BAY      CLOUDY    58  32  37 CALM      30.25R
MANITOWOC      CLOUDY    48  41  76 SE3       30.27R
APPLETON       MOCLDY    57  36  44 SE7       30.24S
CLINTONVILLE   CLOUDY    59  21  23 E6        30.24S
OSHKOSH        CLOUDY    55  46  71 CALM      30.24R
$$

WIZ032>034-041-042-053>061-060300-
SOUTHWEST WISCONSIN

CITY           SKY/WX    TMP DP  RH WIND       PRES   REMARKS
LA CROSSE      RAIN      56  53  90 SE5       30.18S FOG
SPARTA         DRIZZLE   54  48  80 E8        30.20S
VIROQUA        CLOUDY    52  52 100 E10       30.18S
BOSCOBEL       CLOUDY    56  53  90 NE5       30.18F FOG
PRAIRIE DU CHI CLOUDY    55  54  97 E6        30.17R
PLATTEVILLE    CLOUDY    54  53  95 E14       30.18R
$$

WIZ056-057-062-063-064-067-068-060300-
SOUTH CENTRAL WISCONSIN

CITY           SKY/WX    TMP DP  RH WIND       PRES   REMARKS
REEDSBURG      CLOUDY    53  51  94 E3        30.21R
BARABOO/DELLS  NOT AVBL
LONE ROCK      LGT RAIN  55  52  89 E9        30.19S
MINERAL POINT  CLOUDY    54  52  94 E9        30.19S FOG
MADISON        CLOUDY    54  48  80 E12       30.21S
MIDDLETON      CLOUDY    55  50  84 E7        30.22R
WATERTOWN      CLOUDY    51  49  92 E8        30.23S
MONROE         CLOUDY    50  50 100 NE7       30.20R FOG
JANESVILLE     CLOUDY    52  48  87 E9        30.21R
$$

WIZ051-052-058>065-066-070>072-060300-
SOUTHEAST WISCONSIN

CITY           SKY/WX    TMP DP  RH WIND       PRES   REMARKS
MILWAUKEE      CLOUDY    46  41  82 NE5       30.25R
WAUKESHA       MOCLDY    48  45  87 E6        30.25R
MILWAUKEE/TIMM MOCLDY    48  43  81 CALM      30.26R
RACINE         CLOUDY    45  41  86 NE6       30.27R
BURLINGTON     CLOUDY    47  47  97 NE7       30.23S
KENOSHA        CLOUDY    48  46  93 E10       30.24R
FOND DU LAC    CLOUDY    54  45  71 E3        30.24R
SHEBOYGAN      LGT RAIN  49  42  77 NE6       30.25R
WEST BEND      CLOUDY    50  43  76 E3        30.25R
JUNEAU         CLOUDY    51  46  82 E8        30.24F
$$

LSZ147-162-060300-
LAKE SUPERIOR

STATION/POSITION TIME  TEMP    WIND        PRES    WAVE
                       AIR SEA DIR/SP/G            HT/PER
                 (UTC) (F)     (DEG/KT/KT) (MB)    (FT/S)
W MID LAKE BUOY  0150   42 36   90/ 12/ 16 1022.6S   1/ 3
DEVILS ISLAND    0200   49     110/ 11/ 12 1022.2R
PORT WING        0140   42      30/  6/  8 1021.7R
SAXON HARBOR     0100   49     290/  2/  4 1021.0S
$$

LMZ867-665-643>646-060300-
LAKE MICHIGAN

STATION/POSITION TIME  TEMP    WIND        PRES    WAVE
                       AIR SEA DIR/SP/G            HT/PER
                 (UTC) (F)     (DEG/KT/KT) (MB)    (FT/S)
CHAMBERS ISLAND  0100   48      CALM  /  1 1024.4F
NORTHPORT PIER   0100   49     310/  2/  4 1024.4R
SISTER BAY       0102   47        CALM       N/A
KEWAUNEE LAKESHO 0100   48      40/  6/  7 1023.4R
SHEBOYGAN LAKESH 0200   45      20/  7/  8 1025.3R
PORT WASHINGTON  0140   46      50/  4/  6 1025.1R
ATWATER BUOY     0100   44      20/  6/  8 1025.3R
MILWAUKEE LAKESH 0100   47      40/  4/  5   N/A
KENOSHA   LAKESH 0200   45      20/ 11/ 12 1024.0R
$$

TC  - TEMPERATURE IN CELSIUS
VSB - VISIBILITY IN STATUTE MILES
WCI - WIND CHILL INDEX
HX  - HEAT INDEX



USA.gov is the U.S. government's official web portal to all federal, state and local government web resources and services.